TimeCST,TemperatureF,Dew PointF,Humidity,Sea Level PressureIn,VisibilityMPH,Wind Direction,Wind SpeedMPH,Gust SpeedMPH,PrecipitationIn,Events,Conditions,WindDirDegrees,DateUTC
12:15 AM,37.4,12.2,36,30.00,10.0,South,17.3,-,N/A,,Clear,190,2012-12-13 06:15:00
12:35 AM,37.4,12.2,36,30.00,10.0,South,15.0,24.2,N/A,,Clear,190,2012-12-13 06:35:00
12:55 AM,37.4,12.2,36,29.99,10.0,South,13.8,19.6,N/A,,Clear,190,2012-12-13 06:55:00
1:15 AM,37.4,12.2,36,29.99,10.0,South,17.3,-,N/A,,Clear,190,2012-12-13 07:15:00
1:35 AM,37.4,12.2,36,29.99,10.0,South,16.1,23.0,N/A,,Clear,190,2012-12-13 07:35:00
1:55 AM,37.4,12.2,36,29.98,10.0,South,15.0,21.9,N/A,,Clear,180,2012-12-13 07:55:00
2:15 AM,37.4,12.2,36,29.98,10.0,South,17.3,21.9,N/A,,Clear,190,2012-12-13 08:15:00
2:35 AM,37.4,12.2,36,29.98,10.0,South,18.4,24.2,N/A,,Clear,190,2012-12-13 08:35:00
2:55 AM,37.4,12.2,36,29.98,10.0,South,17.3,24.2,N/A,,Clear,190,2012-12-13 08:55:00
3:15 AM,37.4,12.2,36,29.99,10.0,South,15.0,-,N/A,,Clear,190,2012-12-13 09:15:00
3:35 AM,35.6,12.2,38,29.98,10.0,South,11.5,-,N/A,,Clear,190,2012-12-13 09:35:00
3:55 AM,35.6,12.2,38,29.98,10.0,South,15.0,-,N/A,,Clear,190,2012-12-13 09:55:00
4:15 AM,37.4,12.2,36,29.97,10.0,South,16.1,-,N/A,,Clear,190,2012-12-13 10:15:00
4:35 AM,37.4,12.2,36,29.97,10.0,South,16.1,21.9,N/A,,Clear,190,2012-12-13 10:35:00
4:55 AM,37.4,12.2,36,29.97,10.0,South,15.0,24.2,N/A,,Clear,190,2012-12-13 10:55:00
5:15 AM,35.6,12.2,38,29.98,10.0,South,15.0,20.7,N/A,,Clear,190,2012-12-13 11:15:00
5:35 AM,35.6,12.2,38,29.98,10.0,South,12.7,18.4,N/A,,Clear,190,2012-12-13 11:35:00
5:55 AM,35.6,12.2,38,29.98,10.0,South,15.0,19.6,N/A,,Clear,190,2012-12-13 11:55:00
6:15 AM,35.6,14.0,41,29.98,10.0,South,15.0,-,N/A,,Clear,190,2012-12-13 12:15:00
6:35 AM,33.8,14.0,44,29.98,10.0,South,15.0,20.7,N/A,,Clear,190,2012-12-13 12:35:00
6:55 AM,33.8,14.0,44,29.99,10.0,South,11.5,19.6,N/A,,Clear,190,2012-12-13 12:55:00
7:15 AM,33.8,15.8,48,29.99,10.0,South,13.8,-,N/A,,Clear,190,2012-12-13 13:15:00
7:35 AM,33.8,15.8,48,30.00,10.0,South,13.8,-,N/A,,Clear,190,2012-12-13 13:35:00
7:55 AM,33.8,15.8,48,30.00,10.0,South,13.8,17.3,N/A,,Clear,190,2012-12-13 13:55:00
8:15 AM,33.8,15.8,48,30.01,10.0,SSW,12.7,-,N/A,,Clear,200,2012-12-13 14:15:00
8:35 AM,33.8,15.8,48,30.01,10.0,SSW,9.2,16.1,N/A,,Clear,210,2012-12-13 14:35:00
8:55 AM,35.6,15.8,44,30.02,10.0,SSW,15.0,19.6,N/A,,Clear,200,2012-12-13 14:55:00
9:15 AM,37.4,17.6,45,30.02,10.0,SSW,19.6,25.3,N/A,,Clear,210,2012-12-13 15:15:00
9:35 AM,39.2,17.6,42,30.02,10.0,SSW,16.1,19.6,N/A,,Clear,200,2012-12-13 15:35:00
9:55 AM,39.2,17.6,42,30.02,10.0,SSW,17.3,25.3,N/A,,Clear,210,2012-12-13 15:55:00
10:15 AM,41.0,17.6,39,30.03,10.0,SSW,9.2,16.1,N/A,,Clear,210,2012-12-13 16:15:00
10:35 AM,42.8,17.6,36,30.03,10.0,SSW,10.4,-,N/A,,Clear,210,2012-12-13 16:35:00
10:55 AM,44.6,17.6,34,30.04,10.0,SW,13.8,-,N/A,,Clear,230,2012-12-13 16:55:00
11:15 AM,44.6,17.6,34,30.03,10.0,SW,12.7,-,N/A,,Clear,230,2012-12-13 17:15:00
11:35 AM,46.4,17.6,32,30.03,10.0,SSW,8.1,16.1,N/A,,Clear,210,2012-12-13 17:35:00
11:55 AM,46.4,17.6,32,30.02,10.0,SW,11.5,-,N/A,,Clear,220,2012-12-13 17:55:00
12:15 PM,48.2,19.4,32,30.02,10.0,SSW,10.4,-,N/A,,Clear,210,2012-12-13 18:15:00
12:35 PM,48.2,19.4,32,30.02,10.0,SW,10.4,-,N/A,,Clear,230,2012-12-13 18:35:00
12:55 PM,50.0,19.4,30,30.01,10.0,SW,10.4,-,N/A,,Clear,220,2012-12-13 18:55:00
1:15 PM,50.0,19.4,30,30.01,10.0,SW,9.2,-,N/A,,Clear,230,2012-12-13 19:15:00
1:35 PM,51.8,19.4,28,30.01,10.0,SW,11.5,-,N/A,,Clear,220,2012-12-13 19:35:00
1:55 PM,51.8,19.4,28,30.01,10.0,WSW,11.5,-,N/A,,Clear,250,2012-12-13 19:55:00
2:15 PM,51.8,19.4,28,30.01,10.0,WSW,9.2,-,N/A,,Clear,240,2012-12-13 20:15:00
2:35 PM,50.0,19.4,30,30.02,10.0,WSW,8.1,-,N/A,,Clear,250,2012-12-13 20:35:00
2:55 PM,50.0,19.4,30,30.03,10.0,WSW,6.9,-,N/A,,Clear,240,2012-12-13 20:55:00
3:15 PM,48.2,19.4,32,30.03,10.0,Calm,Calm,-,N/A,,Clear,0,2012-12-13 21:15:00
3:35 PM,46.4,19.4,34,30.03,10.0,Calm,Calm,-,N/A,,Clear,0,2012-12-13 21:35:00
3:55 PM,46.4,19.4,34,30.04,10.0,SSW,4.6,-,N/A,,Clear,200,2012-12-13 21:55:00
4:15 PM,44.6,19.4,37,30.04,10.0,SSW,4.6,-,N/A,,Clear,200,2012-12-13 22:15:00
4:35 PM,42.8,19.4,39,30.05,10.0,SSW,4.6,-,N/A,,Clear,200,2012-12-13 22:35:00
6:15 PM,28.4,17.6,64,30.06,10.0,Calm,Calm,-,N/A,,Clear,0,2012-12-14 00:15:00
7:15 PM,24.8,17.6,74,30.06,10.0,Calm,Calm,-,N/A,,Clear,0,2012-12-14 01:15:00
7:35 PM,26.6,17.6,69,30.07,10.0,Calm,Calm,-,N/A,,Clear,0,2012-12-14 01:35:00
7:55 PM,24.8,17.6,74,30.06,7.0,Calm,Calm,-,N/A,,Clear,0,2012-12-14 01:55:00
8:15 PM,24.8,17.6,74,30.06,7.0,Calm,Calm,-,N/A,,Clear,0,2012-12-14 02:15:00
8:35 PM,24.8,17.6,74,30.06,10.0,Calm,Calm,-,N/A,,Clear,0,2012-12-14 02:35:00
8:55 PM,26.6,19.4,74,30.06,10.0,Calm,Calm,-,N/A,,Clear,0,2012-12-14 02:55:00
9:15 PM,24.8,17.6,74,30.07,10.0,Calm,Calm,-,N/A,,Clear,0,2012-12-14 03:15:00
9:35 PM,24.8,17.6,74,30.08,10.0,Calm,Calm,-,N/A,,Clear,0,2012-12-14 03:35:00
9:55 PM,23.0,17.6,80,30.08,10.0,Calm,Calm,-,N/A,,Clear,0,2012-12-14 03:55:00
10:15 PM,23.0,17.6,80,30.08,10.0,Calm,Calm,-,N/A,,Clear,0,2012-12-14 04:15:00
10:35 PM,23.0,17.6,80,30.08,10.0,Calm,Calm,-,N/A,,Clear,0,2012-12-14 04:35:00
10:55 PM,21.2,15.8,80,30.08,10.0,Calm,Calm,-,N/A,,Clear,0,2012-12-14 04:55:00
11:15 PM,21.2,17.6,86,30.07,10.0,Calm,Calm,-,N/A,,Clear,0,2012-12-14 05:15:00
11:35 PM,21.2,15.8,80,30.07,10.0,Calm,Calm,-,N/A,,Clear,0,2012-12-14 05:35:00
11:55 PM,21.2,17.6,86,30.07,10.0,Calm,Calm,-,N/A,,Clear,0,2012-12-14 05:55:00